{"data":{"norad_id":68560,"intl_designator":"2026-070U","name":"STARLINK-37291","alt_names":[],"object_type":"PAYLOAD","status":"ACTIVE","operator":null,"country":"US","launch_date":"2026-04-02","launch_site_code":"AFETR","launch_vehicle":null,"mission":null,"orbit_class":"UNKNOWN","rcs_meters":null,"size_class":null,"mass_kg":null,"dimensions":null,"purposes":["comms"],"wikipedia_slug":null,"has_3d_model":false,"image_url":null,"decayed_at":null,"tle_current":{"epoch":"2026-05-25T04:00:03.998880Z","epoch_age_seconds":54496,"freshness":"FRESH","line1":"1 68560U 26070U   26145.16671295  .00009694  00000+0  29779-3 0  9999","line2":"2 68560  53.1586   6.7161 0001075  81.7390 245.9100 15.34385485  6011","mean_motion":15.34385485,"eccentricity":0.0001075,"inclination_deg":53.1586,"raan_deg":6.7161,"arg_perigee_deg":81.739,"mean_anomaly_deg":245.91,"bstar":0.00029779,"rev_number":601,"period_min":93.848645863591,"perigee_km":462.01098722251,"apogee_km":463.48177714968,"semimajor_km":6840.8833821861,"source":"CELESTRAK","updated_at":"2026-05-25T13:38:21.963391Z"}}}